Home > Weather > Enugu > Past weeks

Flag for Nigeria Weather for the Past 2 Weeks in Enugu, Nigeria

Now
86 °F

Scattered clouds.


Feels Like: 99 °F
Forecast: 77 / 93 °F
Wind: No wind

Location: Malabo/Fernando Poo

Current Time: May 6, 2016 at 4:51:18 PM

Latest Report: May 6, 2016 at 4:00 PM


Visibility: 5 mi

Pressure: 29.83 "Hg

Humidity: 79%

Dew Point: 79 °F

Location of EnuguLocation

Historic Weather in Enugu — Graph

°F

Enugu Temperature Yesterday

Maximum temperature yesterday: 90 °F (at 11:00 AM)
Minimum temperature yesterday: 73 °F (at 4:00 AM)
Average temperature yesterday: 80 °F

High & Low Weather Summary for the Past Weeks

 TemperatureHumidityPressure
High91 °F (Apr 30, 11:00 AM)94% (Apr 25, 4:00 PM)29.95 "Hg (Apr 25, 4:00 PM)
Low73 °F (May 3, 2:00 AM)59% (Apr 27, 11:00 AM)29.74 "Hg (Apr 24, 4:00 PM)
Average82 °F83%29.84 "Hg
* Reported Apr 22 11:00 PM — May 6 3:00 PM, Enugu, Weather by CustomWeather, © 2016

Note: Actual official high and low records may vary slightly from our data, if they occured in-between our weather recording intervals... More about our weather records

Advertising

Enugu Weather History for the Previous 24 Hours

Scroll right to see more
 ConditionsComfort  
Time TempWeatherWind HumidityBarometerVisibility
3:00 PM
Fri, May 6
88 °FScattered clouds.No wind75%29.83 "HgN/A
2:00 PM90 °FScattered clouds.No wind67%29.86 "HgN/A
1:00 PM86 °FScattered clouds.No wind70%29.89 "HgN/A
12:00 PM88 °FPassing clouds.No wind70%29.92 "HgN/A
10:00 AM90 °FPassing clouds.No wind67%29.92 "HgN/A
9:00 AM86 °FPassing clouds.No wind75%29.92 "HgN/A
8:00 AM81 °FPassing clouds.No wind84%29.89 "HgN/A
7:00 AM75 °FPassing clouds.No wind94%29.89 "HgN/A
6:00 AM73 °FPassing clouds.No wind94%29.86 "HgN/A
5:00 AM73 °FPassing clouds.No wind94%29.86 "HgN/A
4:00 AM73 °FPassing clouds.No wind94%29.86 "HgN/A
3:00 AM73 °FPassing clouds.No wind94%29.86 "HgN/A
2:00 AM75 °FPassing clouds.No wind94%29.89 "HgN/A
1:00 AM75 °FPassing clouds.No wind94%29.89 "HgN/A
12:00 AM75 °FPassing clouds.No wind94%29.92 "HgN/A
11:00 PM
Thu, May 5
77 °FPassing clouds.No wind89%29.92 "HgN/A
10:00 PM77 °FPassing clouds.No wind89%29.92 "HgN/A
9:00 PM77 °FPassing clouds.5 mph94%29.89 "HgN/A
8:00 PM79 °FPassing clouds.No wind89%29.89 "HgN/A
7:00 PM79 °FPassing clouds.No wind89%29.89 "HgN/A
6:00 PM81 °FPassing clouds.No wind89%29.86 "HgN/A
5:00 PM81 °FThunderstorms. Passing clouds.No wind89%29.83 "HgN/A
4:00 PM81 °FThunderstorms. Broken clouds.No wind89%29.86 "Hg5 mi
Weather by CustomWeather, © 2016

See weather overviewHow to use our weather pages